CW7443 Weather Reports


Display with metric or nautical units.
time (UTC)temp
F
wind
direction
speed
MPH
gust
MPH
rain 1hr
in
rain 24hr
in
rain mn
in
humidity
%
barometer
mb
20260507025319 47 57 0.0 0.0 0.00 0.00 0.00 77 1014.4
20260507024824 47 57 0.0 0.0 0.00 0.00 0.00 77 1014.4
20260507024325 47 57 0.0 0.0 0.00 0.00 0.00 77 1014.2
20260507023831 47 57 0.0 0.0 0.00 0.00 0.00 77 1014.2
20260507023321 48 57 0.0 0.0 0.00 0.00 0.00 78 1014.2
20260507022824 48 57 0.0 0.0 0.00 0.00 0.00 79 1014.0
20260507022329 48 57 0.0 0.0 0.00 0.00 0.00 78 1014.0
20260507021817 48 57 0.0 0.0 0.00 0.00 0.00 78 1014.0
20260507021324 48 57 0.0 0.0 0.00 0.00 0.00 80 1014.0
20260507020855 48 57 0.0 0.0 0.00 0.00 0.00 78 1014.0
20260507020320 48 57 0.0 0.0 0.00 0.00 0.00 77 1014.0
20260507015843 48 57 0.0 0.0 0.00 0.00 0.00 78 1013.9
20260507015326 48 57 0.0 0.0 0.00 0.00 0.00 79 1013.9
20260507014834 48 57 0.0 0.0 0.00 0.00 0.00 79 1013.9
20260507014336 48 57 0.0 0.0 0.00 0.00 0.00 79 1014.0
20260507013819 48 57 0.0 0.0 0.00 0.00 0.00 78 1014.0
20260507013329 48 57 0.0 0.0 0.00 0.00 0.00 80 1014.0
20260507012833 48 57 0.0 0.0 0.00 0.00 0.00 79 1013.8
20260507012324 48 57 0.0 0.0 0.00 0.00 0.00 80 1013.8
20260507011829 48 57 0.0 0.0 0.00 0.00 0.00 79 1013.8
20260507011333 48 57 0.0 0.0 0.00 0.00 0.00 79 1013.4
20260507010837 48 57 0.0 0.0 0.00 0.00 0.00 74 1013.4
20260507010320 49 57 0.0 0.0 0.00 0.00 0.00 76 1013.4
20260507005822 49 57 0.0 0.0 0.00 0.00 0.00 75 1013.1
20260507005327 49 57 0.0 0.0 0.00 0.00 0.00 72 1013.1
20260507004831 50 57 0.0 0.0 0.00 0.00 0.00 71 1013.1
20260507004336 50 57 0.0 0.0 0.00 0.00 0.00 70 1012.9
20260507003824 51 57 0.0 0.0 0.00 0.00 0.00 69 1012.9
20260507003332 51 57 0.0 0.0 0.00 0.00 0.00 67 1012.9
20260507002837 52 57 0.0 0.0 0.00 0.00 0.00 64 1012.9
20260507002322 52 57 0.0 0.0 0.00 0.00 0.00 65 1012.9
20260507001847 52 57 0.0 0.0 0.00 0.00 0.00 68 1012.9
20260507001354 52 57 0.0 0.0 0.00 0.00 0.00 67 1012.7
20260507000839 53 57 0.0 0.0 0.00 0.00 0.00 63 1012.7
20260507000321 53 57 0.0 0.0 0.00 0.00 0.00 61 1012.7
20260506235824 53 57 0.0 0.0 0.00 0.00 0.00 60 1012.8
20260506235330 53 57 0.0 0.0 0.00 0.00 0.00 59 1012.8
20260506234835 53 57 0.0 0.0 0.00 0.00 0.00 59 1012.8
20260506234358 53 57 0.0 2.0 0.00 0.00 0.00 59 1012.9
20260506233826 53 57 0.0 3.0 0.00 0.00 0.00 60 1012.9
20260506233332 53 40 0.0 3.0 0.00 0.00 0.00 59 1012.9
20260506232836 53 49 0.0 2.0 0.00 0.00 0.00 60 1013.1
20260506232342 53 49 0.0 2.0 0.00 0.00 0.00 58 1013.1
20260506231826 54 49 0.0 2.0 0.00 0.00 0.00 58 1013.1
20260506231331 54 55 0.0 1.0 0.00 0.00 0.00 59 1013.0
20260506230836 54 55 0.0 4.0 0.00 0.00 0.00 58 1013.0
20260506230318 54 55 0.0 4.0 0.00 0.00 0.00 58 1013.0
20260506225818 54 95 0.0 3.0 0.00 0.02 0.00 61 1013.4
20260506225325 54 74 0.0 0.0 0.00 0.02 0.00 59 1013.4
20260506224831 54 74 0.0 2.0 0.00 0.02 0.00 58 1013.4
20260506224317 54 32 0.0 3.0 0.00 0.02 0.00 57 1013.3
20260506223829 54 32 0.0 3.0 0.00 0.02 0.00 62 1013.3
20260506223317 54 32 0.0 3.0 0.00 0.02 0.00 63 1013.3
20260506222820 54 46 0.0 2.0 0.00 0.02 0.00 61 1012.8
20260506222345 54 46 0.0 2.0 0.00 0.02 0.00 58 1012.8
20260506221814 55 49 0.0 4.0 0.00 0.02 0.00 60 1012.8
20260506221322 55 24 0.0 6.0 0.00 0.02 0.00 56 1012.5
20260506220828 55 39 0.0 6.0 0.00 0.02 0.00 61 1012.5
20260506220353 55 76 0.0 2.0 0.00 0.02 0.00 58 1012.5
20260506215853 55 76 0.0 2.0 0.00 0.02 0.00 59 1012.4
20260506215319 55 78 0.0 5.0 0.00 0.02 0.00 58 1012.4
20260506214824 55 67 0.0 5.0 0.00 0.02 0.00 62 1012.4
20260506214326 55 67 1.0 5.0 0.00 0.02 0.00 60 1012.4
20260506213830 56 59 0.0 3.0 0.00 0.02 0.00 61 1012.4
20260506213320 55 29 0.0 3.0 0.00 0.02 0.00 56 1012.4
20260506212824 56 20 1.0 4.0 0.00 0.02 0.00 58 1012.2
20260506212330 56 38 1.0 6.0 0.00 0.02 0.00 58 1012.2
20260506211817 56 5 0.0 6.0 0.00 0.02 0.00 58 1012.2
20260506211322 56 302 0.0 5.0 0.00 0.02 0.00 61 1012.0
20260506210827 56 34 0.0 6.0 0.00 0.02 0.00 60 1012.0
20260506210352 56 46 1.0 6.0 0.00 0.02 0.00 58 1012.0
20260506205835 56 28 0.0 1.0 0.00 0.02 0.00 58 1012.0
20260506205319 56 78 0.0 7.0 0.00 0.02 0.00 58 1012.0
20260506204824 57 78 1.0 7.0 0.00 0.02 0.00 55 1012.0
20260506204347 57 49 0.0 3.0 0.00 0.02 0.00 58 1011.9
20260506203855 57 54 1.0 5.0 0.00 0.02 0.00 54 1011.9
20260506203338 57 44 1.0 6.0 0.00 0.02 0.00 55 1011.9
20260506202825 57 9 0.0 6.0 0.00 0.02 0.00 58 1011.9
20260506202330 58 9 0.0 6.0 0.00 0.02 0.00 59 1011.9
20260506201818 58 33 2.0 5.0 0.00 0.02 0.00 55 1011.9
20260506201341 58 40 2.0 6.0 0.00 0.02 0.00 55 1011.9
20260506200829 58 22 1.0 7.0 0.00 0.02 0.00 56 1011.9
20260506200334 58 32 0.0 7.0 0.00 0.02 0.00 53 1011.9
20260506195857 58 10 1.0 7.0 0.00 0.02 0.00 52 1011.7
20260506195321 59 342 1.0 6.0 0.00 0.02 0.00 55 1011.7
20260506194827 59 348 1.0 6.0 0.00 0.02 0.00 57 1011.7
20260506194332 59 49 1.0 6.0 0.00 0.02 0.00 55 1011.4
20260506193820 59 13 1.0 4.0 0.00 0.02 0.00 55 1011.4
20260506193327 59 43 1.0 5.0 0.00 0.02 0.00 53 1011.4
20260506192833 60 56 2.0 6.0 0.00 0.02 0.00 52 1011.7
20260506192340 60 37 0.0 6.0 0.00 0.02 0.00 55 1011.7
20260506191825 60 61 0.0 8.0 0.00 0.02 0.00 58 1011.7
20260506191330 59 19 1.0 8.0 0.00 0.02 0.00 52 1011.5
20260506190858 59 13 0.0 4.0 0.00 0.02 0.00 55 1011.5
20260506190343 59 289 1.0 7.0 0.00 0.02 0.00 58 1011.5
20260506185826 59 36 2.0 7.0 0.00 0.02 0.00 52 1011.8
20260506185332 59 34 2.0 5.0 0.00 0.02 0.00 57 1011.8
20260506184840 58 30 1.0 5.0 0.00 0.02 0.00 60 1011.8
20260506184322 57 42 1.0 5.0 0.00 0.02 0.00 56 1011.9
20260506183831 57 17 0.0 4.0 0.00 0.02 0.00 54 1011.9
20260506183335 57 50 0.0 6.0 0.00 0.02 0.00 55 1011.9
20260506182821 57 32 1.0 6.0 0.00 0.02 0.00 55 1011.8
20260506182330 57 23 2.0 6.0 0.00 0.02 0.00 57 1011.8
20260506181815 57 54 1.0 4.0 0.00 0.02 0.00 57 1011.8
20260506181320 57 34 0.0 4.0 0.00 0.02 0.00 57 1011.9
20260506180827 57 40 1.0 4.0 0.00 0.02 0.00 56 1011.9
20260506180314 57 67 1.0 4.0 0.00 0.02 0.00 55 1011.9
20260506175821 57 57 0.0 4.0 0.00 0.02 0.00 58 1011.9
20260506175346 57 189 0.0 4.0 0.00 0.02 0.00 57 1011.9
20260506174830 58 44 1.0 4.0 0.00 0.02 0.00 55 1011.9
20260506174332 58 307 1.0 6.0 0.00 0.02 0.00 55 1011.9
20260506173818 59 17 0.0 6.0 0.00 0.02 0.00 58 1011.9
20260506173344 58 24 2.0 6.0 0.00 0.02 0.00 60 1011.9
20260506172823 58 157 1.0 5.0 0.00 0.02 0.00 58 1011.9
20260506172331 57 28 1.0 6.0 0.00 0.02 0.00 58 1011.9
20260506171840 57 26 1.0 6.0 0.00 0.02 0.00 60 1011.9
20260506171341 57 17 1.0 4.0 0.00 0.02 0.00 57 1011.8
20260506170825 57 28 1.0 4.0 0.00 0.02 0.00 62 1011.8
20260506170329 56 169 1.0 6.0 0.00 0.02 0.00 61 1011.8
20260506165835 56 29 1.0 6.0 0.00 0.02 0.00 63 1012.2
20260506165320 56 55 0.0 5.0 0.00 0.02 0.00 63 1012.2
20260506164826 56 46 1.0 8.0 0.00 0.02 0.00 62 1012.2
20260506164328 56 64 0.0 8.0 0.00 0.02 0.00 64 1011.8
20260506163834 56 24 2.0 8.0 0.00 0.02 0.00 68 1011.8
20260506163317 56 74 0.0 3.0 0.00 0.02 0.00 66 1011.8
20260506162840 56 123 0.0 5.0 0.00 0.02 0.00 69 1011.9
20260506162325 55 196 1.0 5.0 0.00 0.02 0.00 75 1011.9
20260506161829 55 63 0.0 3.0 0.00 0.02 0.00 71 1011.9
20260506161336 54 65 1.0 7.0 0.00 0.02 0.00 72 1011.7
20260506160820 54 65 0.0 7.0 0.00 0.02 0.00 76 1011.7
20260506160326 53 28 0.0 5.0 0.00 0.02 0.00 75 1011.7
20260506155848 53 27 2.0 5.0 0.00 0.02 0.00 74 1011.7
20260506155353 53 17 1.0 5.0 0.00 0.02 0.00 75 1011.7
20260506154818 53 149 1.0 5.0 0.00 0.02 0.00 75 1011.7
20260506154321 52 57 0.0 5.0 0.00 0.02 0.00 80 1011.4
20260506153847 52 63 0.0 5.0 0.00 0.02 0.00 79 1011.4
20260506153330 51 34 1.0 5.0 0.00 0.02 0.00 80 1011.4
20260506152832 51 28 0.0 6.0 0.00 0.02 0.00 84 1011.2
20260506152357 51 28 0.0 6.0 0.00 0.02 0.00 86 1011.2
20260506151820 50 27 0.0 4.0 0.00 0.02 0.00 86 1011.2
20260506151320 50 24 1.0 4.0 0.00 0.02 0.00 86 1011.4
20260506150826 50 24 0.0 3.0 0.00 0.02 0.00 89 1011.4
20260506150319 50 24 0.0 4.0 0.00 0.02 0.00 89 1011.4
20260506145825 49 24 0.0 5.0 0.00 0.02 0.00 89 1011.0
20260506145329 49 24 1.0 5.0 0.00 0.02 0.00 88 1011.0
20260506144818 49 28 0.0 0.0 0.00 0.02 0.00 92 1011.0
20260506144320 49 28 0.0 0.0 0.00 0.02 0.00 93 1010.7
20260506143825 49 28 0.0 0.0 0.00 0.02 0.00 93 1010.7
20260506143315 48 29 0.0 4.0 0.00 0.02 0.00 93 1010.7
20260506142837 48 29 0.0 4.0 0.00 0.02 0.00 95 1010.7
20260506142343 48 31 1.0 6.0 0.00 0.02 0.00 96 1010.7
20260506141828 48 9 1.0 6.0 0.00 0.02 0.00 96 1010.7
20260506141333 48 143 0.0 5.0 0.00 0.02 0.00 98 1010.3
20260506140842 48 17 0.0 3.0 0.00 0.02 0.00 99 1010.3
20260506140326 48 38 0.0 5.0 0.00 0.02 0.00 99 1010.3
20260506135828 47 38 0.0 7.0 0.00 0.02 0.00 100 1010.2
20260506135353 47 49 2.0 7.0 0.00 0.02 0.00 100 1010.2
20260506134841 47 25 1.0 6.0 0.00 0.02 0.00 100 1010.2
20260506134322 47 22 1.0 6.0 0.00 0.02 0.00 100 1010.2
20260506133827 47 20 0.0 2.0 0.00 0.02 0.00 100 1010.2
20260506133355 47 19 0.0 2.0 0.00 0.02 0.00 100 1010.2
20260506132818 46 20 0.0 2.0 0.00 0.02 0.00 100 1010.2
20260506132323 46 23 0.0 0.0 0.00 0.02 0.00 100 1010.2
20260506131848 46 23 0.0 0.0 0.00 0.02 0.00 100 1010.2
20260506131351 46 22 0.0 0.0 0.00 0.02 0.00 100 1010.2
20260506130835 46 22 0.0 0.0 0.00 0.02 0.00 100 1010.2
20260506130321 46 22 0.0 0.0 0.00 0.02 0.00 100 1010.2
20260506125827 46 54 0.0 3.0 0.00 0.02 0.00 100 1009.2
20260506125317 46 53 0.0 3.0 0.00 0.02 0.00 100 1009.2
20260506124846 46 78 0.0 0.0 0.00 0.02 0.00 100 1009.2
20260506124330 46 78 0.0 3.0 0.00 0.02 0.00 100 1009.3
20260506123840 46 78 0.0 3.0 0.00 0.02 0.00 100 1009.3
20260506123325 46 78 0.0 3.0 0.00 0.02 0.00 100 1009.3
20260506122826 46 11 0.0 3.0 0.00 0.02 0.00 100 1009.2
20260506122334 46 11 0.0 3.0 0.00 0.02 0.00 100 1009.2
20260506121818 46 39 0.0 0.0 0.00 0.02 0.00 100 1009.2
20260506121320 46 39 0.0 0.0 0.00 0.02 0.00 100 1009.2
20260506120828 45 39 0.0 0.0 0.00 0.02 0.00 100 1009.2
20260506120355 45 39 0.0 0.0 0.00 0.02 0.00 100 1009.2
20260506115837 45 39 0.0 0.0 0.00 0.02 0.00 100 1008.9
20260506115325 45 39 0.0 0.0 0.00 0.02 0.00 100 1008.9
20260506114831 45 39 0.0 0.0 0.00 0.02 0.00 100 1008.9
20260506114334 45 39 0.0 0.0 0.00 0.02 0.00 100 1008.6
20260506113859 45 39 0.0 0.0 0.00 0.02 0.00 100 1008.6
20260506113323 45 39 0.0 0.0 0.00 0.02 0.00 100 1008.6
20260506112828 45 39 0.0 0.0 0.00 0.02 0.00 100 1008.1
20260506112336 45 39 0.0 0.0 0.00 0.02 0.00 100 1008.1
20260506111819 45 39 0.0 0.0 0.00 0.02 0.00 100 1008.1
20260506111319 45 39 0.0 0.0 0.00 0.02 0.00 100 1008.3
20260506110849 45 39 0.0 0.0 0.00 0.02 0.00 100 1008.3
20260506110332 45 39 0.0 1.0 0.00 0.02 0.00 100 1008.3
20260506105834 45 39 0.0 1.0 0.00 0.02 0.00 100 1008.5
20260506105324 45 24 0.0 0.0 0.00 0.02 0.00 100 1008.5
20260506104850 45 24 0.0 0.0 0.00 0.02 0.00 100 1008.5
20260506104330 45 26 0.0 0.0 0.00 0.02 0.00 100 1007.6
20260506103837 45 25 0.0 0.0 0.00 0.02 0.00 100 1007.6
20260506103323 45 26 0.0 0.0 0.00 0.02 0.00 100 1007.6
20260506102828 45 25 0.0 0.0 0.00 0.02 0.00 100 1007.1
20260506102337 45 26 0.0 0.0 0.00 0.02 0.00 100 1007.1
20260506101819 46 26 0.0 0.0 0.00 0.02 0.00 100 1007.1
20260506101322 46 26 0.0 0.0 0.00 0.02 0.00 100 1006.8
20260506100826 46 26 0.0 0.0 0.00 0.02 0.00 100 1006.8
20260506100313 46 24 0.0 2.0 0.00 0.02 0.00 100 1006.8
20260506095824 46 24 0.0 3.0 0.00 0.02 0.00 100 1007.3
20260506095330 46 24 0.0 3.0 0.00 0.02 0.00 100 1007.3
20260506094820 46 22 0.0 0.0 0.00 0.02 0.00 100 1007.3
20260506094323 46 22 0.0 0.0 0.00 0.02 0.00 100 1007.4
20260506093828 46 22 0.0 0.0 0.00 0.02 0.00 100 1007.4
20260506093315 46 22 0.0 1.0 0.00 0.02 0.00 100 1007.4
20260506092841 46 22 0.0 4.0 0.00 0.02 0.00 100 1006.9
20260506092324 46 22 1.0 4.0 0.00 0.02 0.00 100 1006.9
20260506091830 46 30 0.0 4.0 0.00 0.02 0.00 100 1006.9
20260506091331 47 31 2.0 4.0 0.00 0.02 0.00 100 1007.3
20260506090856 47 26 1.0 4.0 0.00 0.02 0.00 100 1007.3
20260506090321 48 19 0.0 2.0 0.00 0.02 0.00 100 1007.3
20260506085828 48 22 0.0 0.0 0.00 0.02 0.00 100 1007.0
20260506085333 48 19 0.0 4.0 0.00 0.02 0.00 100 1007.0
20260506084819 48 19 0.0 5.0 0.00 0.02 0.00 100 1007.0
20260506084322 49 19 1.0 5.0 0.00 0.02 0.00 100 1006.9
20260506083847 49 28 0.0 0.0 0.00 0.02 0.00 100 1006.9
20260506083332 49 28 0.0 0.0 0.00 0.02 0.00 100 1006.9
20260506082836 49 29 0.0 0.0 0.00 0.02 0.00 100 1006.9
20260506082341 49 29 0.0 0.0 0.00 0.02 0.00 100 1006.9
20260506081847 49 29 0.0 0.0 0.00 0.02 0.00 100 1006.9
20260506081351 49 29 0.0 2.0 0.00 0.02 0.00 100 1006.5
20260506080855 49 30 0.0 2.0 0.00 0.02 0.00 100 1006.5
20260506080317 49 29 0.0 2.0 0.00 0.02 0.00 100 1006.5
20260506073332 50 29 0.0 0.0 0.00 0.02 0.00 100 1006.1
20260506072837 50 27 0.0 2.0 0.00 0.02 0.00 100 1006.2
20260506072322 50 28 0.0 2.0 0.00 0.02 0.00 100 1006.2
20260506071827 51 39 0.0 4.0 0.00 0.02 0.00 100 1006.2
20260506071329 51 40 1.0 4.0 0.00 0.02 0.00 100 1006.3
20260506070835 52 27 0.0 5.0 0.00 0.02 0.00 100 1006.3
20260506070321 52 28 1.0 5.0 0.00 0.02 0.00 100 1006.3
20260506062326 53 50 0.0 0.0 0.00 0.02 0.00 100 1006.0
20260506061829 53 50 0.0 0.0 0.00 0.02 0.00 100 1006.0
20260506061334 53 50 0.0 0.0 0.00 0.02 0.00 100 1006.2
20260506060817 53 50 0.0 0.0 0.00 0.02 0.00 100 1006.2
20260506060326 53 50 0.0 0.0 0.00 0.02 0.00 100 1006.2
20260506051319 54 51 0.0 0.0 0.00 0.02 0.00 100 1006.9
20260506050824 55 51 0.0 0.0 0.00 0.02 0.00 100 1006.9
20260506050319 55 51 0.0 1.0 0.00 0.02 0.00 100 1006.9
20260506044832 56 51 0.0 4.0 0.00 0.02 0.00 100 1007.0
20260506044355 58 196 0.0 0.0 0.00 0.02 0.00 100 1007.0
20260506043819 58 196 0.0 0.0 0.00 0.02 0.00 100 1007.0
20260506043325 58 196 0.0 0.0 0.00 0.02 0.00 100 1007.0
20260506042828 58 196 0.0 0.0 0.00 0.02 0.00 100 1007.0
20260506042332 58 223 0.0 0.0 0.00 0.02 0.00 100 1007.0
20260506041816 58 251 0.0 0.0 0.00 0.02 0.00 100 1007.0
20260506041320 58 250 0.0 3.0 0.00 0.02 0.00 100 1007.1
20260506040826 58 250 0.0 3.0 0.00 0.02 0.00 100 1007.1
20260506040328 58 120 0.0 3.0 0.00 0.02 0.00 100 1007.1
20260506035835 58 80 0.0 0.0 0.00 0.02 0.02 100 1007.6
20260506035324 58 168 0.0 1.0 0.00 0.02 0.02 100 1007.6
20260506034829 58 168 0.0 1.0 0.00 0.02 0.02 100 1007.6
20260506034331 58 86 0.0 1.0 0.00 0.02 0.02 100 1007.7
20260506033836 58 111 0.0 0.0 0.00 0.02 0.02 100 1007.7
20260506033319 58 146 0.0 0.0 0.00 0.02 0.02 100 1007.7
20260506032821 58 146 0.0 2.0 0.00 0.02 0.02 100 1007.8
20260506032326 58 153 0.0 2.0 0.00 0.02 0.02 100 1007.8
20260506031834 58 248 0.0 2.0 0.00 0.02 0.02 100 1007.8
20260506031319 58 141 0.0 4.0 0.00 0.02 0.02 100 1007.6
20260506030827 58 169 0.0 4.0 0.00 0.02 0.02 100 1007.6
20260506030334 58 173 1.0 5.0 0.00 0.02 0.02 100 1007.6
20260506025837 58 232 0.0 5.0 0.00 0.02 0.02 100 1007.9